MARIO

Last updated on Wed May 03 2023 00:02:06 GMT+0000 (Coordinated Universal Time)

1 55123U 98067UQ 23122.41244032 .03200969 11876-4 16320-2 0 9996 2 55123 51.6176 178.7376 0010120 349.7594 10.3216 16.19668861 19519

Satellite not in orbit